This demonstration page uses our WeatherBlox Daily Observations layout. Learn more.

39.29038, -76.61219

Hourly Observations for March 9, 2019

Temp ( °F °C ) Dew Point ( °F °C ) Humidity (%) Winds ( mph kmh ) Pressure ( in mb ) Visibility ( mi km ) Precip ( " mm )
12:54 am 00:54 undefined 36 2.2 33 0.6 89 89 undefined N/A 30.23 1024 N/A 0 0
1:54 am 01:54 undefined 36 2.2 32 0 86 86 undefined N/A 30.23 1024 N/A 0 0
2:54 am 02:54 undefined 36 2.2 32 0 86 86 undefined N/A 30.21 1023 N/A 0 0
3:54 am 03:54 undefined 36 2.2 32 0 86 86 undefined N/A 30.23 1024 N/A 0 0
4:54 am 04:54 undefined 36 2.2 32 0 86 86 undefined N/A 30.25 1025 N/A 0 0
5:54 am 05:54 undefined 36 2.2 32 0 86 86 undefined N/A 30.27 1025 N/A 0 0
6:54 am 06:54 undefined 36 2.2 32 0 86 86 undefined N/A 30.29 1026 N/A 0 0
7:54 am 07:54 undefined 37 2.8 32 0 82 82 undefined N/A 30.3 1026 N/A 0 0
8:54 am 08:54 undefined 37 2.8 31 -0.6 79 79 undefined N/A 30.33 1027 N/A 0 0
9:54 am 09:54 undefined 41 5 31 -0.6 67 67 undefined N/A 30.39 1029 N/A 0 0
10:54 am 10:54 undefined 40 4.4 29 -1.7 65 65 undefined N/A 30.33 1027 N/A 0 0
11:54 am 11:54 undefined 41 5 30 -1.1 65 65 undefined N/A 30.34 1027 N/A 0 0
12:54 pm 12:54 undefined 41 5 29 -1.7 62 62 undefined N/A 30.33 1027 N/A 0 0
1:54 pm 13:54 undefined 43 6.1 31 -0.6 63 63 undefined N/A 30.35 1028 N/A 0 0
2:54 pm 14:54 undefined 42 5.6 30 -1.1 62 62 undefined N/A 30.29 1026 N/A 0 0
3:54 pm 15:54 undefined 42 5.6 30 -1.1 62 62 undefined N/A 30.29 1026 N/A 0 0
4:54 pm 16:54 undefined 41 5 31 -0.6 67 67 undefined N/A 30.3 1026 N/A 0 0
5:54 pm 17:54 undefined 40 4.4 31 -0.6 70 70 undefined N/A 30.29 1026 N/A 0 0
6:54 pm 18:54 undefined 40 4.4 31 -0.6 70 70 undefined N/A 30.28 1025 N/A 0 0
7:54 pm 19:54 undefined 39 3.9 31 -0.6 73 73 undefined N/A 30.28 1025 N/A 0 0
8:54 pm 20:54 undefined 39 3.9 31 -0.6 73 73 undefined N/A 30.27 1025 N/A 0 0
9:54 pm 21:54 undefined 40 4.4 31 -0.6 70 70 undefined N/A 30.28 1025 N/A 0 0
10:54 pm 22:54 undefined 39 3.9 33 0.6 79 79 undefined N/A 30.24 1024 N/A 0.01 0.254
11:54 pm 23:54 undefined 38 3.3 34 1.1 86 86 undefined N/A 30.15 1021 N/A 0.07 1.778

Powered by AerisWeather